RRR4405 LMML-EGVN

Flight info

Callsign RRR4405
Flight time N/A
Altitude 32000
Route GZO3B GZO P623 OLLEK DCT ROSAS DCT ROTUN DCT XIBIL DCT ELBUK DCT CANNE DCT BEGAR DCT SUTAL N852 DIK M624 BUB L608 DENUT L610 LAM L179 ICTAM T421 DIDZA BZN
Aircraft A400/H-SGHIRWXY/LB1

Departure

Time N/A
Airport Malta International Airport (LMML)

Arrival

Time 2026-05-08 20:21
Airport RAF Brize Norton (EGVN)
Time Latitude Longitude Altitude Speed Heading
2026-05-08 20:07 51.63542 -1.19252 10046 ft 283 kts 148°
2026-05-08 20:08 51.61770 -1.17987 10049 ft 278 kts 171°
2026-05-08 20:08 51.59871 -1.17997 10045 ft 273 kts 195°
2026-05-08 20:08 51.58178 -1.19289 10049 ft 271 kts 219°
2026-05-08 20:08 51.56989 -1.21589 10047 ft 271 kts 242°
2026-05-08 20:09 51.56317 -1.24410 9940 ft 267 kts 252°
2026-05-08 20:09 51.56019 -1.27352 9353 ft 270 kts 268°
2026-05-08 20:09 51.56382 -1.30333 8705 ft 278 kts 291°
2026-05-08 20:09 51.57497 -1.32910 8148 ft 283 kts 310°
2026-05-08 20:10 51.58871 -1.35171 7642 ft 282 kts 314°
2026-05-08 20:10 51.60282 -1.37357 7179 ft 281 kts 315°
2026-05-08 20:10 51.61694 -1.39528 6720 ft 280 kts 315°
2026-05-08 20:10 51.63099 -1.41695 6260 ft 278 kts 315°
2026-05-08 20:11 51.64488 -1.43844 5918 ft 276 kts 315°
2026-05-08 20:11 51.65867 -1.45985 5443 ft 275 kts 315°
2026-05-08 20:11 51.67245 -1.48128 4975 ft 275 kts 315°
2026-05-08 20:11 51.68618 -1.50267 4491 ft 273 kts 315°
2026-05-08 20:12 51.69967 -1.52372 4036 ft 272 kts 315°
2026-05-08 20:12 51.71322 -1.54489 3573 ft 271 kts 315°
2026-05-08 20:12 51.72655 -1.56572 3376 ft 261 kts 315°
2026-05-08 20:12 51.73919 -1.58591 3229 ft 250 kts 311°
2026-05-08 20:13 51.74814 -1.60855 3111 ft 230 kts 287°
2026-05-08 20:13 51.75125 -1.63245 2990 ft 208 kts 275°
2026-05-08 20:13 51.75266 -1.65495 2859 ft 195 kts 272°
2026-05-08 20:13 51.75374 -1.67605 2804 ft 181 kts 271°
2026-05-08 20:14 51.75473 -1.69593 2803 ft 176 kts 271°
2026-05-08 20:14 51.75571 -1.71547 2822 ft 175 kts 271°
2026-05-08 20:14 51.75664 -1.73493 2766 ft 174 kts 271°
2026-05-08 20:14 51.75747 -1.75393 2643 ft 173 kts 271°
2026-05-08 20:15 51.75832 -1.77379 2494 ft 174 kts 271°
2026-05-08 20:15 51.75914 -1.79333 2343 ft 174 kts 271°
2026-05-08 20:15 51.75991 -1.81272 2309 ft 173 kts 268°
2026-05-08 20:16 51.75963 -1.82426 2305 ft 171 kts 257°
2026-05-08 20:16 51.75638 -1.84068 2299 ft 166 kts 235°
2026-05-08 20:16 51.74894 -1.85440 2309 ft 161 kts 211°
2026-05-08 20:16 51.73895 -1.86158 2309 ft 157 kts 187°
2026-05-08 20:17 51.72819 -1.86155 2307 ft 154 kts 165°
2026-05-08 20:17 51.71848 -1.85471 2306 ft 153 kts 143°
2026-05-08 20:17 51.71122 -1.84224 2307 ft 154 kts 121°
2026-05-08 20:17 51.70802 -1.82609 2307 ft 155 kts 95°
2026-05-08 20:18 51.70895 -1.80848 2309 ft 160 kts 81°
2026-05-08 20:18 51.71178 -1.79097 2309 ft 162 kts 78°
2026-05-08 20:18 51.71493 -1.77354 2306 ft 162 kts 77°
2026-05-08 20:18 51.71814 -1.75615 2262 ft 163 kts 77°
2026-05-08 20:19 51.72135 -1.73861 1987 ft 163 kts 77°
2026-05-08 20:19 51.72450 -1.72138 1794 ft 154 kts 77°
2026-05-08 20:19 51.72749 -1.70508 1604 ft 150 kts 77°
2026-05-08 20:19 51.73042 -1.68912 1383 ft 148 kts 76°
2026-05-08 20:20 51.73335 -1.67322 1152 ft 148 kts 75°
2026-05-08 20:20 51.73625 -1.65731 955 ft 148 kts 74°
2026-05-08 20:20 51.73918 -1.64146 788 ft 147 kts 73°
2026-05-08 20:20 51.74206 -1.62577 565 ft 143 kts 72°
2026-05-08 20:21 51.74501 -1.61015 400 ft 147 kts 74°
2026-05-08 20:21 51.74761 -1.59570 271 ft 120 kts 73°
2026-05-08 20:21 51.74949 -1.58585 275 ft 58 kts 73°
2026-05-08 20:21 51.75047 -1.58153 273 ft 30 kts 48°
2026-05-08 20:22 51.75192 -1.58011 275 ft 22 kts 28°
2026-05-08 20:22 51.75318 -1.57904 276 ft 19 kts 28°
2026-05-08 20:22 51.75433 -1.57806 273 ft 18 kts 28°
2026-05-08 20:22 51.75541 -1.57716 274 ft 17 kts 26°
2026-05-08 20:23 51.75648 -1.57650 273 ft 16 kts 19°
2026-05-08 20:23 51.75755 -1.57594 275 ft 16 kts 18°
2026-05-08 20:23 51.75851 -1.57542 273 ft 13 kts 19°
2026-05-08 20:23 51.75920 -1.57479 273 ft 11 kts 62°
2026-05-08 20:24 51.75929 -1.57359 273 ft 11 kts 94°
2026-05-08 20:24 51.75914 -1.57233 273 ft 12 kts 110°
2026-05-08 20:24 51.75879 -1.57101 275 ft 14 kts 124°
2026-05-08 20:24 51.75807 -1.57106 276 ft 12 kts 197°
2026-05-08 20:25 51.75721 -1.57158 273 ft 14 kts 203°
2026-05-08 20:25 51.75635 -1.57206 273 ft 9 kts 196°
2026-05-08 20:25 51.75602 -1.57230 273 ft 3 kts 220°
2026-05-08 20:25 51.75595 -1.57259 273 ft 3 kts 263°
2026-05-08 20:26 51.75602 -1.57318 275 ft 5 kts 287°
2026-05-08 20:26 51.75607 -1.57341 273 ft 0 kts 288°